Time,TemperatureF,DewpointF,PressureIn,WindDirection,WindDirectionDegrees,WindSpeedMPH,WindSpeedGustMPH,Humidity,HourlyPrecipIn,Conditions,Clouds,dailyrainin,SoftwareType,DateUTC
2013-04-25 17:33:00,49.0,32.0,30.25,WNW,282,11.0,19.0,51,0.00,,,0.01,,2013-04-25 21:33:00,
2013-04-25 17:42:00,49.0,32.0,30.25,WNW,282,11.0,19.0,51,0.00,,,0.01,,2013-04-25 21:42:00,
2013-04-25 17:53:00,48.0,31.0,30.26,NW,316,9.0,15.0,52,0.00,,,0.01,,2013-04-25 21:53:00,
2013-04-25 18:03:00,48.0,32.0,30.27,NW,319,11.0,16.0,53,0.00,,,0.01,,2013-04-25 22:03:00,
2013-04-25 18:12:00,48.0,32.0,30.27,NW,319,11.0,16.0,53,0.00,,,0.01,,2013-04-25 22:12:00,
2013-04-25 18:22:00,48.0,32.0,30.27,West,281,8.0,17.0,54,0.00,,,0.01,,2013-04-25 22:22:00,
2013-04-25 18:33:00,49.0,33.0,30.26,WNW,299,6.0,11.0,54,0.00,,,0.01,,2013-04-25 22:33:00,
2013-04-25 18:42:00,49.0,33.0,30.26,WNW,299,6.0,11.0,54,0.00,,,0.01,,2013-04-25 22:42:00,
2013-04-25 18:53:00,48.0,34.0,30.27,WNW,303,5.0,10.0,57,0.00,,,0.01,,2013-04-25 22:53:00,
2013-04-25 19:02:00,49.0,33.0,30.28,NW,318,7.0,12.0,54,0.00,,,0.01,,2013-04-25 23:02:00,
2013-04-25 19:12:00,49.0,33.0,30.28,NW,318,7.0,12.0,54,0.00,,,0.01,,2013-04-25 23:12:00,
2013-04-25 19:22:00,49.0,33.0,30.28,WNW,299,7.0,10.0,53,0.00,,,0.01,,2013-04-25 23:22:00,
2013-04-25 19:32:00,49.0,33.0,30.29,NNW,335,7.0,12.0,54,0.00,,,0.01,,2013-04-25 23:32:00,
2013-04-25 19:42:00,49.0,33.0,30.29,NNW,335,7.0,12.0,54,0.00,,,0.01,,2013-04-25 23:42:00,
2013-04-25 19:52:00,49.0,34.0,30.28,WNW,291,5.0,10.0,57,0.00,,,0.01,,2013-04-25 23:52:00,
2013-04-25 20:01:00,48.0,33.0,30.29,NW,314,5.0,8.0,56,0.00,,,0.01,,2013-04-26 00:01:00,
2013-04-25 20:11:00,48.0,33.0,30.29,NW,314,5.0,8.0,56,0.00,,,0.01,,2013-04-26 00:11:00,
2013-04-25 20:21:00,48.0,34.0,30.29,NW,306,2.0,8.0,57,0.00,,,0.01,,2013-04-26 00:21:00,
2013-04-25 20:32:00,47.0,33.0,30.30,WNW,292,2.0,5.0,58,0.00,,,0.01,,2013-04-26 00:32:00,
2013-04-25 20:42:00,47.0,33.0,30.30,WNW,292,2.0,5.0,58,0.00,,,0.01,,2013-04-26 00:42:00,
2013-04-25 20:52:00,47.0,33.0,30.30,NW,314,1.0,4.0,59,0.00,,,0.01,,2013-04-26 00:52:00,
2013-04-25 21:01:00,46.0,33.0,30.30,NW,314,0.0,1.0,60,0.00,,,0.01,,2013-04-26 01:01:00,
2013-04-25 21:11:00,46.0,33.0,30.30,NW,314,0.0,1.0,60,0.00,,,0.01,,2013-04-26 01:11:00,
2013-04-25 21:21:00,46.0,34.0,30.30,NW,314,0.0,0.0,63,0.00,,,0.01,,2013-04-26 01:21:00,
2013-04-25 21:32:00,44.0,33.0,30.31,NW,314,0.0,0.0,66,0.00,,,0.01,,2013-04-26 01:32:00,
2013-04-25 21:42:00,44.0,33.0,30.31,NW,314,0.0,0.0,66,0.00,,,0.01,,2013-04-26 01:42:00,
2013-04-25 21:52:00,44.0,34.0,30.32,NW,314,0.0,0.0,68,0.00,,,0.01,,2013-04-26 01:52:00,
2013-04-25 22:02:00,43.0,33.0,30.32,NW,314,0.0,0.0,68,0.00,,,0.01,,2013-04-26 02:02:00,
2013-04-25 22:12:00,43.0,33.0,30.32,NW,314,0.0,0.0,68,0.00,,,0.01,,2013-04-26 02:12:00,
2013-04-25 22:21:00,42.0,33.0,30.33,NW,314,0.0,0.0,69,0.00,,,0.01,,2013-04-26 02:21:00,
2013-04-25 22:32:00,42.0,35.0,30.34,NW,314,0.0,1.0,75,0.00,,,0.01,,2013-04-26 02:32:00,
2013-04-25 22:42:00,42.0,35.0,30.34,NW,314,0.0,1.0,75,0.00,,,0.01,,2013-04-26 02:42:00,
2013-04-25 22:51:00,42.0,36.0,30.34,NW,314,0.0,1.0,80,0.00,,,0.01,,2013-04-26 02:51:00,
2013-04-25 23:01:00,41.0,35.0,30.34,NW,314,0.0,1.0,80,0.00,,,0.01,,2013-04-26 03:01:00,
2013-04-25 23:11:00,41.0,35.0,30.34,NW,314,0.0,1.0,80,0.00,,,0.01,,2013-04-26 03:11:00,
2013-04-25 23:22:00,40.0,35.0,30.35,NW,314,1.0,2.0,83,0.00,,,0.01,,2013-04-26 03:22:00,
2013-04-25 23:33:00,40.0,36.0,30.35,NW,314,0.0,1.0,84,0.00,,,0.01,,2013-04-26 03:33:00,
2013-04-25 23:43:00,40.0,36.0,30.35,NW,314,0.0,1.0,84,0.00,,,0.01,,2013-04-26 03:43:00,
2013-04-25 23:53:00,39.0,35.0,30.35,NW,314,0.0,0.0,87,0.00,,,0.01,,2013-04-26 03:53:00,